TimeEDT,TemperatureF,Dew PointF,Humidity,Sea Level PressureIn,VisibilityMPH,Wind Direction,Wind SpeedMPH,Gust SpeedMPH,PrecipitationIn,Events,Conditions,WindDirDegrees,DateUTC
12:28 AM,64.4,60.8,88,29.77,10.0,Calm,Calm,-,N/A,,Overcast,0,2013-09-03 04:28:00
12:54 AM,63.0,60.1,90,29.77,10.0,Calm,Calm,-,N/A,,Overcast,0,2013-09-03 04:54:00
1:13 AM,64.4,60.8,88,29.78,10.0,Calm,Calm,-,N/A,,Overcast,0,2013-09-03 05:13:00
1:30 AM,64.4,60.8,88,29.78,10.0,Calm,Calm,-,N/A,,Overcast,0,2013-09-03 05:30:00
1:54 AM,64.0,60.1,87,29.77,10.0,Calm,Calm,-,N/A,,Overcast,0,2013-09-03 05:54:00
2:54 AM,64.0,60.1,87,29.76,10.0,SW,4.6,-,0.00,,Overcast,230,2013-09-03 06:54:00
3:44 AM,62.6,59.0,88,29.77,10.0,WSW,5.8,-,N/A,,Overcast,250,2013-09-03 07:44:00
3:54 AM,63.0,59.0,87,29.77,10.0,WSW,5.8,-,N/A,,Overcast,240,2013-09-03 07:54:00
4:54 AM,63.0,57.9,84,29.78,9.0,SW,5.8,-,0.00,Rain,Light Rain,230,2013-09-03 08:54:00
5:54 AM,62.1,57.9,86,29.78,10.0,SW,5.8,-,0.00,,Overcast,220,2013-09-03 09:54:00
6:54 AM,61.0,57.9,90,29.80,7.0,WSW,3.5,-,0.01,Rain,Light Rain,240,2013-09-03 10:54:00
7:54 AM,63.0,57.0,81,29.80,10.0,SW,8.1,-,0.00,,Overcast,220,2013-09-03 11:54:00
8:54 AM,63.0,57.9,84,29.81,10.0,SW,10.4,-,N/A,,Overcast,230,2013-09-03 12:54:00
9:54 AM,64.9,57.0,75,29.81,10.0,WSW,13.8,-,N/A,,Overcast,250,2013-09-03 13:54:00
10:54 AM,68.0,57.9,70,29.82,10.0,WSW,8.1,-,0.01,,Mostly Cloudy,240,2013-09-03 14:54:00
11:54 AM,66.0,55.9,70,29.82,10.0,WNW,10.4,18.4,N/A,,Overcast,290,2013-09-03 15:54:00
12:54 PM,66.0,57.0,73,29.83,10.0,West,15.0,19.6,N/A,,Overcast,270,2013-09-03 16:54:00
1:54 PM,64.0,57.9,80,29.83,10.0,West,12.7,-,0.00,Rain,Light Rain,270,2013-09-03 17:54:00
2:54 PM,64.9,57.0,75,29.83,10.0,WSW,17.3,24.2,0.00,,Overcast,250,2013-09-03 18:54:00
3:54 PM,64.0,55.9,75,29.83,10.0,West,13.8,23.0,N/A,,Overcast,260,2013-09-03 19:54:00
4:07 PM,62.6,55.4,77,29.84,10.0,WSW,11.5,-,N/A,,Overcast,240,2013-09-03 20:07:00
4:14 PM,62.6,55.4,77,29.84,10.0,WSW,9.2,-,N/A,,Overcast,240,2013-09-03 20:14:00
4:54 PM,63.0,55.9,78,29.83,10.0,WSW,8.1,-,N/A,,Overcast,250,2013-09-03 20:54:00
5:54 PM,64.9,57.0,75,29.84,10.0,WSW,13.8,-,N/A,,Overcast,250,2013-09-03 21:54:00
6:54 PM,64.0,55.9,75,29.84,10.0,WSW,8.1,-,0.00,,Overcast,250,2013-09-03 22:54:00
7:54 PM,63.0,57.9,84,29.86,10.0,WSW,6.9,-,0.01,Rain,Light Rain,250,2013-09-03 23:54:00
8:54 PM,63.0,57.9,84,29.89,10.0,SW,6.9,-,0.00,,Overcast,230,2013-09-04 00:54:00
9:54 PM,63.0,57.9,84,29.89,10.0,SW,4.6,-,N/A,,Overcast,230,2013-09-04 01:54:00
10:54 PM,62.1,57.9,86,29.90,10.0,SW,4.6,-,N/A,,Overcast,220,2013-09-04 02:54:00
11:54 PM,61.0,57.0,87,29.91,10.0,SW,5.8,-,N/A,,Mostly Cloudy,220,2013-09-04 03:54:00